Location: �bnet
(46.9957°N, 8.4908°E)
Time: 23:54:30
(UTC+00:00)

USA 215 - Pass Details

Date: 11 May 2021
Orbit: 1100 x 1107 km, 123.0° (Epoch: 14 June)

Event Time Altitude Azimuth Distance (km) Brightness Sun altitude
Rises 21:27:30 0° 86° (E) 3,916 5.9 -19.9°
Reaches altitude 10° 21:30:06 10° 80° (E) 2,959 5.3 -20.2°
Maximum altitude 21:36:07 41° 13° (NNE) 1,542 4.4 -20.6°
Drops below altitude 10° 21:42:09 10° 306° (NW) 2,965 6.4 -21.1°
Sets 21:44:46 0° 299° (WNW) 3,925 7.0 -21.3°
